Station Historical Data
Daily Summary for May 3, 2017 Units:  Metric    English   Both
« Previous Day
Next Day »
Daily Weekly Monthly Yearly Custom
  High: Low: Average:
Temperature: 11.8 °C 4.7 °C 8.3 °C
Dew Point: 5.2 °C 1.1 °C 2.9 °C
Humidity: 86% 56% 70%
Wind Speed: 22.5km/h 0km/h 8.9km/h
Wind Gust: 32.2km/h - -
Wind- - West
Pressure: 1023.9 hPa 1008 hPa -
Precipitation: 0.51 mm    
Historical Graphs
 
 
Tabular Data for May 3, 2017
Time Temperature Dew Point Pressure Wind Wind Speed Wind Gust Humidity Rainfall Rate (Hourly)
00:00 7.7 °C 4.8 °C 1008 hPa WSW 11.3 km/h 25.7 km/h 82% 0 mm
00:05 7.7 °C 4.8 °C 1008 hPa WNW 6.4 km/h 29 km/h 82% 0 mm
00:10 7.7 °C 4.8 °C 1008 hPa WSW 17.7 km/h 27.4 km/h 82% 0 mm
00:15 7.6 °C 4.7 °C 1008 hPa WSW 12.9 km/h 27.4 km/h 82% 0 mm
00:20 7.6 °C 4.7 °C 1008 hPa SSW 11.3 km/h 27.4 km/h 82% 0 mm
00:25 7.6 °C 4.7 °C 1008 hPa WSW 14.5 km/h 27.4 km/h 82% 0 mm
00:30 7.6 °C 4.7 °C 1008 hPa WSW 14.5 km/h 25.7 km/h 82% 0 mm
00:35 7.6 °C 4.7 °C 1008 hPa WSW 12.9 km/h 24.1 km/h 82% 0 mm
00:40 7.6 °C 4.7 °C 1008.4 hPa WSW 12.9 km/h 24.1 km/h 82% 0 mm
00:45 7.6 °C 4.8 °C 1008.4 hPa West 17.7 km/h 32.2 km/h 83% 0 mm
00:50 7.5 °C 4.8 °C 1008.4 hPa SW 12.9 km/h 25.7 km/h 83% 0 mm
00:55 7.5 °C 4.8 °C 1008.4 hPa WSW 12.9 km/h 30.6 km/h 83% 0 mm
01:00 7.5 °C 4.8 °C 1008.4 hPa West 8 km/h 17.7 km/h 83% 0 mm
01:05 7.5 °C 4.8 °C 1008.4 hPa WSW 12.9 km/h 24.1 km/h 83% 0 mm
01:10 7.6 °C 4.8 °C 1008.4 hPa West 12.9 km/h 20.9 km/h 83% 0 mm
01:15 7.6 °C 4.7 °C 1008.4 hPa West 3.2 km/h 19.3 km/h 82% 0 mm
01:20 7.7 °C 4.8 °C 1008.4 hPa West 9.7 km/h 19.3 km/h 82% 0 mm
01:25 7.7 °C 4.6 °C 1008.4 hPa West 8 km/h 19.3 km/h 81% 0 mm
01:30 7.7 °C 4.3 °C 1008.4 hPa West 9.7 km/h 24.1 km/h 79% 0 mm
01:35 7.7 °C 3.9 °C 1008.7 hPa West 9.7 km/h 24.1 km/h 77% 0 mm
01:40 7.7 °C 3.7 °C 1008.7 hPa West 9.7 km/h 22.5 km/h 76% 0 mm
01:45 7.7 °C 3.7 °C 1008.7 hPa West 17.7 km/h 20.9 km/h 76% 0 mm
01:50 7.6 °C 3.4 °C 1009 hPa West 8 km/h 22.5 km/h 75% 0 mm
01:55 7.6 °C 3.6 °C 1009 hPa West 11.3 km/h 22.5 km/h 76% 0 mm
02:00 7.6 °C 3.6 °C 1009 hPa West 9.7 km/h 19.3 km/h 76% 0 mm
02:05 7.5 °C 3.6 °C 1009 hPa West 9.7 km/h 22.5 km/h 76% 0 mm
02:10 7.4 °C 3.5 °C 1009 hPa WSW 14.5 km/h 22.5 km/h 76% 0 mm
02:15 7.4 °C 3.5 °C 1009 hPa West 11.3 km/h 22.5 km/h 76% 0 mm
02:20 7.4 °C 3.4 °C 1009 hPa WSW 4.8 km/h 20.9 km/h 76% 0 mm
02:25 7.3 °C 3.4 °C 1009 hPa NNW 11.3 km/h 22.5 km/h 76% 0 mm
02:30 7.3 °C 3.2 °C 1009.4 hPa West 9.7 km/h 22.5 km/h 75% 0 mm
02:35 7.3 °C 3.1 °C 1009.4 hPa West 9.7 km/h 24.1 km/h 75% 0 mm
02:40 7.3 °C 3.3 °C 1009.4 hPa West 9.7 km/h 24.1 km/h 76% 0 mm
02:45 7.2 °C 3.3 °C 1009.4 hPa WSW 4.8 km/h 17.7 km/h 76% 0 mm
02:55 7 °C 2.9 °C 1009.7 hPa SW 8 km/h 25.7 km/h 75% 0 mm
03:00 6.9 °C 2.8 °C 1009.7 hPa West 9.7 km/h 27.4 km/h 75% 0 mm
03:10 6.8 °C 2.9 °C 1009.7 hPa West 4.8 km/h 22.5 km/h 76% 0 mm
03:15 6.8 °C 2.9 °C 1009.7 hPa West 11.3 km/h 14.5 km/h 76% 0 mm
03:20 6.8 °C 2.9 °C 1010 hPa WNW 4.8 km/h 17.7 km/h 76% 0 mm
03:25 6.8 °C 3 °C 1010 hPa WNW 11.3 km/h 16.1 km/h 77% 0 mm
03:30 6.7 °C 2.9 °C 1010 hPa West 6.4 km/h 19.3 km/h 77% 0 mm
03:35 6.7 °C 3.2 °C 1010.4 hPa West 9.7 km/h 19.3 km/h 78% 0 mm
03:40 6.7 °C 3.1 °C 1010.4 hPa West 9.7 km/h 20.9 km/h 78% 0 mm
03:45 6.6 °C 3.1 °C 1010.4 hPa West 14.5 km/h 16.1 km/h 78% 0 mm
03:50 6.6 °C 3 °C 1010.7 hPa West 8 km/h 19.3 km/h 78% 0 mm
03:55 6.6 °C 3 °C 1010.7 hPa West 11.3 km/h 14.5 km/h 78% 0 mm
04:00 6.6 °C 3 °C 1010.7 hPa NW 11.3 km/h 17.7 km/h 78% 0 mm
04:05 6.5 °C 2.9 °C 1011.1 hPa West 11.3 km/h 22.5 km/h 78% 0 mm
04:10 6.4 °C 3.1 °C 1011.1 hPa WNW 11.3 km/h 22.5 km/h 79% 0 mm
04:15 6.4 °C 3 °C 1011.1 hPa West 9.7 km/h 19.3 km/h 79% 0 mm
04:20 6.4 °C 3 °C 1011.1 hPa WNW 14.5 km/h 29 km/h 79% 0 mm
04:25 6.4 °C 3 °C 1011.1 hPa West 11.3 km/h 19.3 km/h 79% 0 mm
04:30 6.3 °C 2.9 °C 1011.4 hPa West 9.7 km/h 20.9 km/h 79% 0 mm
04:35 6.3 °C 2.9 °C 1011.4 hPa WNW 11.3 km/h 20.9 km/h 79% 0 mm
04:40 6.3 °C 2.9 °C 1011.4 hPa West 9.7 km/h 19.3 km/h 79% 0 mm
04:45 6.3 °C 2.9 °C 1011.7 hPa West 9.7 km/h 19.3 km/h 79% 0 mm
04:50 6.2 °C 2.8 °C 1011.7 hPa West 9.7 km/h 17.7 km/h 79% 0 mm
04:55 6.2 °C 2.8 °C 1011.7 hPa WNW 9.7 km/h 19.3 km/h 79% 0 mm
05:00 6.2 °C 2.8 °C 1011.7 hPa West 3.2 km/h 19.3 km/h 79% 0 mm
05:05 6.2 °C 2.8 °C 1012.1 hPa West 9.7 km/h 20.9 km/h 79% 0 mm
05:10 6.2 °C 2.8 °C 1012.1 hPa West 4.8 km/h 17.7 km/h 79% 0 mm
05:15 6.2 °C 3 °C 1012.1 hPa WNW 6.4 km/h 17.7 km/h 80% 0 mm
05:20 6.2 °C 2.9 °C 1012.4 hPa WNW 8 km/h 12.9 km/h 80% 0 mm
05:25 6.1 °C 3.1 °C 1012.4 hPa WNW 9.7 km/h 17.7 km/h 81% 0 mm
05:30 6 °C 3.3 °C 1012.4 hPa West 3.2 km/h 12.9 km/h 83% 0.25 mm
05:35 5.8 °C 3.3 °C 1012.8 hPa WNW 6.4 km/h 19.3 km/h 84% 0.25 mm
05:40 5.5 °C 3.2 °C 1012.8 hPa NW 8 km/h 19.3 km/h 85% 0.51 mm
05:45 5.1 °C 2.6 °C 1012.8 hPa NW 8 km/h 20.9 km/h 84% 0.51 mm
05:50 4.9 °C 2.6 °C 1013.1 hPa WNW 8 km/h 20.9 km/h 85% 0.51 mm
05:55 4.8 °C 2.7 °C 1013.1 hPa NW 6.4 km/h 16.1 km/h 86% 0.51 mm
06:00 4.8 °C 2.6 °C 1013.4 hPa WNW 8 km/h 12.9 km/h 86% 0.51 mm
06:05 4.8 °C 2.6 °C 1013.4 hPa West 3.2 km/h 11.3 km/h 86% 0.51 mm
06:10 4.8 °C 2.6 °C 1013.4 hPa West 4.8 km/h 12.9 km/h 86% 0.51 mm
06:15 4.7 °C 2.6 °C 1013.4 hPa NW 6.4 km/h 9.7 km/h 86% 0.51 mm
06:20 4.7 °C 2.3 °C 1013.8 hPa NW 11.3 km/h 14.5 km/h 85% 0.51 mm
06:25 4.7 °C 2.2 °C 1014.1 hPa NW 4.8 km/h 11.3 km/h 84% 0.51 mm
06:30 4.7 °C 2.1 °C 1013.8 hPa WNW 8 km/h 17.7 km/h 83% 0.25 mm
06:35 4.8 °C 1.8 °C 1014.1 hPa NW 6.4 km/h 17.7 km/h 81% 0.25 mm
06:40 4.7 °C 1.4 °C 1014.1 hPa NNW 6.4 km/h 19.3 km/h 79% 0 mm
06:45 4.7 °C 1.2 °C 1014.4 hPa NW 8 km/h 20.9 km/h 78% 0 mm
06:50 4.7 °C 1.2 °C 1014.4 hPa NW 8 km/h 20.9 km/h 78% 0 mm
06:55 4.8 °C 1.3 °C 1014.4 hPa NW 8 km/h 17.7 km/h 78% 0 mm
07:00 4.8 °C 1.1 °C 1014.4 hPa NW 3.2 km/h 17.7 km/h 77% 0 mm
07:05 4.8 °C 1.1 °C 1014.8 hPa NW 8 km/h 17.7 km/h 77% 0 mm
07:10 4.9 °C 1.2 °C 1014.8 hPa WSW 11.3 km/h 14.5 km/h 77% 0 mm
07:15 5 °C 1.3 °C 1015.1 hPa NW 11.3 km/h 12.9 km/h 77% 0 mm
07:20 5.1 °C 1.4 °C 1015.1 hPa West 8 km/h 16.1 km/h 77% 0 mm
07:25 5.2 °C 1.7 °C 1015.5 hPa WNW 4.8 km/h 14.5 km/h 78% 0 mm
07:30 5.2 °C 1.5 °C 1015.5 hPa NNW 6.4 km/h 12.9 km/h 77% 0 mm
07:35 5.2 °C 1.5 °C 1015.5 hPa WNW 8 km/h 16.1 km/h 77% 0 mm
07:40 5.3 °C 1.4 °C 1015.5 hPa WNW 8 km/h 16.1 km/h 76% 0 mm
07:45 5.2 °C 1.2 °C 1015.5 hPa NW 8 km/h 17.7 km/h 75% 0 mm
07:50 5.3 °C 1.3 °C 1015.5 hPa NW 8 km/h 17.7 km/h 75% 0 mm
07:55 5.4 °C 1.3 °C 1015.5 hPa WNW 6.4 km/h 17.7 km/h 75% 0 mm
08:00 5.5 °C 1.2 °C 1015.8 hPa WNW 6.4 km/h 12.9 km/h 74% 0 mm
08:05 5.6 °C 1.3 °C 1015.8 hPa WNW 4.8 km/h 12.9 km/h 74% 0 mm
08:10 5.7 °C 1.6 °C 1015.8 hPa WNW 4.8 km/h 12.9 km/h 75% 0 mm
08:15 5.7 °C 1.4 °C 1015.8 hPa WNW 6.4 km/h 11.3 km/h 74% 0 mm
08:20 5.7 °C 1.4 °C 1016.1 hPa WNW 8 km/h 19.3 km/h 74% 0 mm
08:25 5.7 °C 1.6 °C 1016.1 hPa WNW 4.8 km/h 14.5 km/h 75% 0 mm
08:30 5.8 °C 1.6 °C 1016.1 hPa WNW 11.3 km/h 11.3 km/h 74% 0 mm
08:35 5.8 °C 1.4 °C 1016.5 hPa NW 4.8 km/h 12.9 km/h 73% 0 mm
08:40 5.8 °C 1.6 °C 1016.5 hPa NW 6.4 km/h 17.7 km/h 74% 0 mm
08:45 6.3 °C 2.2 °C 1016.5 hPa NW 8 km/h 17.7 km/h 75% 0 mm
08:50 6.9 °C 1.8 °C 1016.5 hPa NW 6.4 km/h 14.5 km/h 70% 0 mm
08:55 7.4 °C 2.1 °C 1016.5 hPa NW 8 km/h 19.3 km/h 69% 0 mm
09:00 7.3 °C 2 °C 1016.5 hPa WNW 4.8 km/h 16.1 km/h 69% 0 mm
09:05 7.7 °C 2.2 °C 1016.5 hPa WNW 9.7 km/h 12.9 km/h 68% 0 mm
09:10 7.9 °C 2.3 °C 1016.8 hPa NW 8 km/h 19.3 km/h 68% 0 mm
09:15 7.7 °C 2 °C 1016.8 hPa West 8 km/h 17.7 km/h 67% 0 mm
09:20 7.2 °C 2.1 °C 1016.8 hPa WNW 12.9 km/h 14.5 km/h 70% 0 mm
09:25 7.6 °C 2.3 °C 1016.8 hPa SSW 8 km/h 16.1 km/h 69% 0 mm
09:30 7.6 °C 2.3 °C 1016.8 hPa West 4.8 km/h 19.3 km/h 69% 0 mm
09:35 7.3 °C 1.8 °C 1017.2 hPa West 9.7 km/h 17.7 km/h 68% 0 mm
09:40 7.2 °C 2.1 °C 1017.2 hPa West 9.7 km/h 17.7 km/h 70% 0 mm
09:45 7.2 °C 2.3 °C 1017.2 hPa West 8 km/h 17.7 km/h 71% 0 mm
09:50 8 °C 2.1 °C 1017.5 hPa WNW 8 km/h 17.7 km/h 66% 0 mm
09:55 8.2 °C 2 °C 1017.5 hPa NW 6.4 km/h 14.5 km/h 65% 0 mm
10:00 9.1 °C 3.1 °C 1017.5 hPa NNW 4.8 km/h 17.7 km/h 66% 0 mm
10:05 8.4 °C 1.9 °C 1017.5 hPa WNW 14.5 km/h 17.7 km/h 64% 0 mm
10:10 7.8 °C 1.6 °C 1017.8 hPa WNW 11.3 km/h 20.9 km/h 65% 0 mm
10:15 8.4 °C 2.4 °C 1017.8 hPa WNW 9.7 km/h 20.9 km/h 66% 0 mm
10:20 8.4 °C 2.2 °C 1017.8 hPa WNW 8 km/h 19.3 km/h 65% 0 mm
10:25 8.8 °C 2.2 °C 1017.8 hPa NW 8 km/h 19.3 km/h 63% 0 mm
10:30 9.3 °C 2.8 °C 1018.2 hPa West 3.2 km/h 16.1 km/h 64% 0 mm
10:35 9.4 °C 2.9 °C 1018.5 hPa NNE 8 km/h 16.1 km/h 64% 0 mm
10:40 8.7 °C 2.7 °C 1018.5 hPa WSW 4.8 km/h 24.1 km/h 66% 0 mm
10:45 9.4 °C 3.1 °C 1018.5 hPa WNW 8 km/h 24.1 km/h 65% 0 mm
10:50 8.7 °C 1.8 °C 1018.8 hPa WNW 9.7 km/h 19.3 km/h 62% 0 mm
10:55 9.8 °C 4.3 °C 1018.8 hPa WNW 9.7 km/h 17.7 km/h 69% 0 mm
11:00 9.4 °C 2.4 °C 1018.8 hPa WNW 14.5 km/h 16.1 km/h 62% 0 mm
11:05 9.8 °C 2.8 °C 1019.2 hPa NNW 4.8 km/h 16.1 km/h 62% 0 mm
11:10 9.9 °C 3.4 °C 1019.2 hPa WNW 9.7 km/h 16.1 km/h 64% 0 mm
11:15 9.7 °C 2.5 °C 1019.5 hPa WNW 8 km/h 22.5 km/h 61% 0 mm
11:20 9.9 °C 3.4 °C 1019.9 hPa West 9.7 km/h 22.5 km/h 64% 0 mm
11:25 10.6 °C 3.6 °C 1019.9 hPa WNW 9.7 km/h 20.9 km/h 62% 0 mm
11:30 10.8 °C 3.6 °C 1020.2 hPa WNW 14.5 km/h 19.3 km/h 61% 0 mm
11:35 10.3 °C 2.6 °C 1019.9 hPa WNW 3.2 km/h 19.3 km/h 59% 0 mm
11:40 10.5 °C 3.3 °C 1019.5 hPa WNW 9.7 km/h 19.3 km/h 61% 0 mm
11:45 10.2 °C 2.1 °C 1019.9 hPa NW 8 km/h 19.3 km/h 57% 0 mm
11:50 10.3 °C 2.8 °C 1019.9 hPa WNW 9.7 km/h 16.1 km/h 60% 0 mm
11:55 10.7 °C 3 °C 1019.9 hPa West 9.7 km/h 19.3 km/h 59% 0 mm
12:00 10.6 °C 2.9 °C 1020.2 hPa WNW 9.7 km/h 19.3 km/h 59% 0 mm
12:05 10.9 °C 2.4 °C 1020.2 hPa West 8 km/h 17.7 km/h 56% 0 mm
12:10 11.2 °C 3.5 °C 1020.2 hPa West 9.7 km/h 20.9 km/h 59% 0 mm
12:15 11 °C 3.5 °C 1020.2 hPa WNW 8 km/h 20.9 km/h 60% 0 mm
12:20 11.3 °C 2.8 °C 1020.5 hPa WNW 8 km/h 16.1 km/h 56% 0 mm
12:25 11.8 °C 3.3 °C 1020.5 hPa West 8 km/h 19.3 km/h 56% 0 mm
12:30 10.4 °C 3.9 °C 1020.5 hPa WSW 9.7 km/h 25.7 km/h 64% 0 mm
12:35 10.4 °C 4.2 °C 1020.9 hPa West 11.3 km/h 25.7 km/h 65% 0 mm
12:40 10.4 °C 4.1 °C 1020.9 hPa SW 12.9 km/h 25.7 km/h 65% 0 mm
12:45 10.2 °C 4.1 °C 1020.9 hPa SW 22.5 km/h 29 km/h 66% 0 mm
12:50 9.9 °C 3.9 °C 1020.9 hPa WNW 11.3 km/h 24.1 km/h 66% 0 mm
12:55 10.4 °C 4.1 °C 1020.9 hPa WSW 17.7 km/h 25.7 km/h 65% 0 mm
13:00 10.2 °C 3.9 °C 1020.9 hPa SW 14.5 km/h 27.4 km/h 65% 0 mm
13:05 10.8 °C 4.7 °C 1020.9 hPa WSW 8 km/h 25.7 km/h 66% 0 mm
13:10 10.8 °C 4.5 °C 1020.9 hPa SW 11.3 km/h 25.7 km/h 65% 0 mm
13:15 11.1 °C 4.5 °C 1020.9 hPa SW 11.3 km/h 24.1 km/h 64% 0 mm
13:20 10.6 °C 4.2 °C 1020.9 hPa WSW 12.9 km/h 27.4 km/h 65% 0 mm
13:25 10.3 °C 4.1 °C 1020.9 hPa SW 14.5 km/h 29 km/h 65% 0 mm
13:30 10.3 °C 4.4 °C 1020.9 hPa SW 12.9 km/h 29 km/h 67% 0 mm
13:35 10.7 °C 4.6 °C 1020.9 hPa SW 14.5 km/h 29 km/h 66% 0 mm
13:40 11.1 °C 4.7 °C 1020.9 hPa SSW 16.1 km/h 27.4 km/h 65% 0 mm
13:45 10.7 °C 4.1 °C 1020.9 hPa WSW 12.9 km/h 27.4 km/h 64% 0 mm
13:50 10.7 °C 4.3 °C 1020.9 hPa SW 16.1 km/h 25.7 km/h 65% 0 mm
13:55 10.6 °C 4 °C 1020.9 hPa WSW 20.9 km/h 24.1 km/h 64% 0 mm
14:00 10.9 °C 4.6 °C 1020.9 hPa SW 9.7 km/h 27.4 km/h 65% 0 mm
14:05 11 °C 4.4 °C 1020.9 hPa SW 16.1 km/h 24.1 km/h 64% 0 mm
14:10 10.6 °C 4 °C 1020.9 hPa WSW 14.5 km/h 30.6 km/h 64% 0 mm
14:15 10.6 °C 4 °C 1020.9 hPa SW 14.5 km/h 30.6 km/h 64% 0 mm
14:20 10.8 °C 4.2 °C 1020.9 hPa WSW 14.5 km/h 24.1 km/h 64% 0 mm
14:30 11.1 °C 5 °C 1021.2 hPa WSW 14.5 km/h 20.9 km/h 66% 0 mm
14:35 11 °C 4.2 °C 1020.9 hPa SW 17.7 km/h 24.1 km/h 63% 0 mm
14:40 10.8 °C 4.3 °C 1021.2 hPa WSW 16.1 km/h 25.7 km/h 64% 0 mm
14:45 10.8 °C 4 °C 1021.2 hPa SW 14.5 km/h 25.7 km/h 63% 0 mm
14:50 10.6 °C 3.8 °C 1021.2 hPa WSW 14.5 km/h 25.7 km/h 63% 0 mm
14:55 11.3 °C 5 °C 1021.2 hPa WSW 12.9 km/h 25.7 km/h 65% 0 mm
15:00 11.3 °C 4.3 °C 1021.2 hPa WSW 11.3 km/h 25.7 km/h 62% 0 mm
15:05 11.7 °C 4.8 °C 1021.2 hPa SSW 12.9 km/h 22.5 km/h 63% 0 mm
15:10 11.7 °C 4.4 °C 1020.9 hPa West 11.3 km/h 20.9 km/h 61% 0 mm
15:15 11.8 °C 5.2 °C 1020.9 hPa WSW 11.3 km/h 20.9 km/h 64% 0 mm
15:20 11.3 °C 4.6 °C 1020.9 hPa WSW 16.1 km/h 22.5 km/h 63% 0 mm
15:25 11.5 °C 4.2 °C 1020.9 hPa SW 12.9 km/h 24.1 km/h 61% 0 mm
15:30 11.4 °C 3.9 °C 1020.9 hPa West 8 km/h 20.9 km/h 60% 0 mm
15:35 11.4 °C 4.1 °C 1020.9 hPa West 12.9 km/h 20.9 km/h 61% 0 mm
15:50 11.7 °C 4.2 °C 1020.9 hPa SW 11.3 km/h 20.9 km/h 60% 0 mm
16:00 11.6 °C 4.3 °C 1020.9 hPa WSW 11.3 km/h 22.5 km/h 61% 0 mm
16:05 11.8 °C 4.5 °C 1021.2 hPa WSW 11.3 km/h 27.4 km/h 61% 0 mm
16:10 11.6 °C 3.8 °C 1020.9 hPa West 9.7 km/h 22.5 km/h 59% 0 mm
16:15 11.2 °C 4.2 °C 1020.9 hPa SW 14.5 km/h 22.5 km/h 62% 0 mm
16:20 11.1 °C 3.8 °C 1020.9 hPa SW 12.9 km/h 27.4 km/h 61% 0 mm
16:25 11.1 °C 4.1 °C 1020.9 hPa WSW 12.9 km/h 22.5 km/h 62% 0 mm
16:30 11.6 °C 4.3 °C 1020.9 hPa WSW 11.3 km/h 20.9 km/h 61% 0 mm
16:35 11.1 °C 3.4 °C 1020.5 hPa WSW 12.9 km/h 24.1 km/h 59% 0 mm
16:40 10.8 °C 3.3 °C 1020.5 hPa WNW 11.3 km/h 27.4 km/h 60% 0 mm
16:45 10.8 °C 3.6 °C 1020.5 hPa WSW 12.9 km/h 27.4 km/h 61% 0 mm
16:50 10.9 °C 3.2 °C 1020.5 hPa WSW 6.4 km/h 19.3 km/h 59% 0 mm
17:00 10.4 °C 3.4 °C 1020.5 hPa WSW 12.9 km/h 24.1 km/h 62% 0 mm
17:05 10.6 °C 3.6 °C 1020.5 hPa SW 12.9 km/h 22.5 km/h 62% 0 mm
17:10 10.8 °C 3.8 °C 1020.5 hPa WSW 11.3 km/h 20.9 km/h 62% 0 mm
17:15 10.8 °C 4.1 °C 1020.5 hPa SW 4.8 km/h 17.7 km/h 63% 0 mm
17:20 10.9 °C 4.1 °C 1020.2 hPa SW 12.9 km/h 20.9 km/h 63% 0 mm
17:25 10.4 °C 3.2 °C 1020.2 hPa SW 11.3 km/h 19.3 km/h 61% 0 mm
17:30 10.3 °C 3.1 °C 1020.2 hPa WSW 8 km/h 20.9 km/h 61% 0 mm
17:35 10.7 °C 3.7 °C 1020.5 hPa WSW 8 km/h 20.9 km/h 62% 0 mm
17:40 10.5 °C 3.3 °C 1020.5 hPa SW 6.4 km/h 20.9 km/h 61% 0 mm
17:45 10.7 °C 3.9 °C 1020.5 hPa WSW 9.7 km/h 20.9 km/h 63% 0 mm
17:50 10.4 °C 2.8 °C 1020.5 hPa WSW 9.7 km/h 20.9 km/h 59% 0 mm
17:55 10.4 °C 3 °C 1020.5 hPa SW 11.3 km/h 20.9 km/h 60% 0 mm
18:00 10.4 °C 2.9 °C 1020.5 hPa SW 11.3 km/h 22.5 km/h 60% 0 mm
18:05 10.4 °C 2.7 °C 1020.5 hPa SW 11.3 km/h 22.5 km/h 59% 0 mm
18:10 10.3 °C 2.6 °C 1020.5 hPa WSW 8 km/h 16.1 km/h 59% 0 mm
18:15 10.2 °C 2.8 °C 1020.5 hPa SW 9.7 km/h 20.9 km/h 60% 0 mm
18:20 10.2 °C 2.8 °C 1020.5 hPa WSW 9.7 km/h 20.9 km/h 60% 0 mm
18:25 10.2 °C 2.7 °C 1020.5 hPa WSW 9.7 km/h 24.1 km/h 60% 0 mm
18:30 10.1 °C 2.6 °C 1020.9 hPa West 14.5 km/h 20.9 km/h 60% 0 mm
18:35 10.1 °C 2.9 °C 1020.9 hPa SW 6.4 km/h 20.9 km/h 61% 0 mm
18:40 10.1 °C 2.9 °C 1020.9 hPa WSW 8 km/h 17.7 km/h 61% 0 mm
18:45 10.1 °C 2.6 °C 1020.9 hPa SW 9.7 km/h 17.7 km/h 60% 0 mm
18:50 9.8 °C 2.7 °C 1021.2 hPa SW 11.3 km/h 25.7 km/h 61% 0 mm
18:55 9.7 °C 2.6 °C 1021.2 hPa WSW 11.3 km/h 25.7 km/h 61% 0 mm
19:00 9.7 °C 2.7 °C 1021.2 hPa WSW 9.7 km/h 19.3 km/h 62% 0 mm
19:05 9.5 °C 2.6 °C 1021.2 hPa WSW 9.7 km/h 20.9 km/h 62% 0 mm
19:10 9.4 °C 2.7 °C 1021.2 hPa WSW 11.3 km/h 22.5 km/h 63% 0 mm
19:15 9.4 °C 2.5 °C 1021.2 hPa WSW 9.7 km/h 22.5 km/h 62% 0 mm
19:20 9.4 °C 2.7 °C 1021.2 hPa WSW 8 km/h 19.3 km/h 63% 0 mm
19:25 9.2 °C 2.6 °C 1021.2 hPa WSW 9.7 km/h 19.3 km/h 63% 0 mm
19:30 9.1 °C 2.4 °C 1021.2 hPa West 14.5 km/h 19.3 km/h 63% 0 mm
19:35 9 °C 2.3 °C 1021.6 hPa WSW 8 km/h 16.1 km/h 63% 0 mm
19:40 8.9 °C 2.3 °C 1021.6 hPa SW 11.3 km/h 14.5 km/h 63% 0 mm
19:45 8.9 °C 2.2 °C 1021.6 hPa WSW 4.8 km/h 20.9 km/h 63% 0 mm
19:50 8.8 °C 2.1 °C 1021.9 hPa WSW 8 km/h 20.9 km/h 63% 0 mm
19:55 8.7 °C 2 °C 1021.9 hPa WSW 6.4 km/h 12.9 km/h 63% 0 mm
20:00 8.6 °C 1.9 °C 1022.2 hPa WSW 6.4 km/h 12.9 km/h 63% 0 mm
20:05 8.6 °C 1.9 °C 1022.6 hPa West 6.4 km/h 14.5 km/h 63% 0 mm
20:10 8.5 °C 1.8 °C 1022.6 hPa WSW 6.4 km/h 17.7 km/h 63% 0 mm
20:15 8.5 °C 1.8 °C 1022.6 hPa WSW 8 km/h 16.1 km/h 63% 0 mm
20:20 8.4 °C 1.7 °C 1022.6 hPa WSW 8 km/h 16.1 km/h 63% 0 mm
20:25 8.4 °C 1.9 °C 1022.9 hPa WSW 6.4 km/h 14.5 km/h 64% 0 mm
20:30 8.4 °C 1.8 °C 1023.2 hPa WSW 8 km/h 19.3 km/h 63% 0 mm
20:35 8.4 °C 1.7 °C 1023.2 hPa West 4.8 km/h 11.3 km/h 63% 0 mm
20:40 8.3 °C 1.7 °C 1023.2 hPa West 8 km/h 16.1 km/h 63% 0 mm
20:45 8.3 °C 1.9 °C 1023.2 hPa West 6.4 km/h 16.1 km/h 64% 0 mm
20:50 8.3 °C 1.7 °C 1023.2 hPa WSW 6.4 km/h 16.1 km/h 63% 0 mm
20:55 8.3 °C 1.7 °C 1023.2 hPa WSW 6.4 km/h 14.5 km/h 63% 0 mm
21:00 8.3 °C 1.9 °C 1023.2 hPa WSW 8 km/h 16.1 km/h 64% 0 mm
21:05 8.3 °C 1.9 °C 1023.6 hPa West 8 km/h 12.9 km/h 64% 0 mm
21:10 8.3 °C 1.9 °C 1023.6 hPa WSW 3.2 km/h 11.3 km/h 64% 0 mm
21:15 8.3 °C 1.9 °C 1023.6 hPa WSW 4.8 km/h 12.9 km/h 64% 0 mm
21:20 8.3 °C 1.9 °C 1023.9 hPa WSW 6.4 km/h 12.9 km/h 64% 0 mm
21:30 8.3 °C 1.9 °C 1023.9 hPa WSW 6.4 km/h 12.9 km/h 64% 0 mm
21:35 8.3 °C 1.9 °C 1023.6 hPa WSW 4.8 km/h 11.3 km/h 64% 0 mm
21:40 8.3 °C 1.9 °C 1023.6 hPa SW 1.6 km/h 11.3 km/h 64% 0 mm
21:45 8.1 °C 1.9 °C 1023.6 hPa WSW 3.2 km/h 11.3 km/h 65% 0 mm
21:50 8.1 °C 1.9 °C 1023.6 hPa WSW 3.2 km/h 9.7 km/h 65% 0 mm
21:55 8.1 °C 1.9 °C 1023.6 hPa WSW 3.2 km/h 9.7 km/h 65% 0 mm
22:00 7.9 °C 1.9 °C 1023.6 hPa WSW 3.2 km/h 8 km/h 66% 0 mm
22:05 7.7 °C 2 °C 1023.6 hPa SW 4.8 km/h 6.4 km/h 67% 0 mm
22:10 7.5 °C 1.9 °C 1023.6 hPa Calm   4.8 km/h 68% 0 mm
22:15 7.2 °C 2.1 °C 1023.6 hPa SW 1.6 km/h 4.8 km/h 70% 0 mm
22:20 7.2 °C 2.3 °C 1023.6 hPa Calm   6.4 km/h 71% 0 mm
22:25 7.2 °C 2.3 °C 1023.6 hPa SW 3.2 km/h 8 km/h 71% 0 mm
22:30 7.3 °C 2.6 °C 1023.6 hPa SSW 3.2 km/h 6.4 km/h 72% 0 mm
22:35 7.3 °C 2.6 °C 1023.6 hPa SSW 3.2 km/h 6.4 km/h 72% 0 mm
22:40 7.1 °C 2.6 °C 1023.6 hPa Calm   6.4 km/h 73% 0 mm
22:45 7.1 °C 2.7 °C 1023.6 hPa SSW 3.2 km/h 6.4 km/h 74% 0 mm
22:50 7 °C 2.9 °C 1023.9 hPa SSW 3.2 km/h 9.7 km/h 75% 0 mm
22:55 7.1 °C 2.8 °C 1023.9 hPa SSW 3.2 km/h 9.7 km/h 74% 0 mm
23:00 6.9 °C 2.8 °C 1023.6 hPa SW 3.2 km/h 6.4 km/h 75% 0 mm
23:05 6.9 °C 2.6 °C 1023.6 hPa SW 1.6 km/h 6.4 km/h 74% 0 mm
23:10 6.7 °C 2.6 °C 1023.6 hPa SW 1.6 km/h 4.8 km/h 75% 0 mm
23:15 6.6 °C 2.7 °C 1023.6 hPa Calm   3.2 km/h 76% 0 mm
23:20 6.5 °C 2.6 °C 1023.6 hPa Calm   3.2 km/h 76% 0 mm
23:30 6.2 °C 2.6 °C 1023.6 hPa Calm     78% 0 mm
23:35 6.1 °C 2.5 °C 1023.6 hPa Calm     78% 0 mm
23:40 5.8 °C 2.4 °C 1023.2 hPa Calm     79% 0 mm
23:45 5.8 °C 2.4 °C 1023.2 hPa Calm   4.8 km/h 79% 0 mm
23:50 5.9 °C 2.3 °C 1023.2 hPa Calm   4.8 km/h 78% 0 mm
23:55 5.8 °C 2.3 °C 1022.9 hPa Calm   3.2 km/h 78% 0 mm
Buffalo, New York, USA
Compliments of Weather Underground - 2.5 mb